Погода в Сиялкоте

Пакистан     32°31′25″N   74°33′06″E
темп.,
°C
ветер,
м/с
пор.,
м/с
влажн.,
%
обл.,
%
осадки,
мм/ч
давл.,
гПа
погр.,
м
29 мая, вс
вс2923:00+32всв48328 0.0 997288
02:00+31вюв11400 0.0 99726
05:00+29св34390 0.0 99769
08:00+35в34260 0.0 999710
11:00+40юв42190 0.0 9983281
14:00+43юв22125 0.0 9954445
17:00+43юз1190 0.0 9934593
20:00+34ссв692413 0.0 997433
30 мая, пн
пн3023:00+31ссв7112951 0.0 997249
02:00+31всв5112883 0.0 996215
05:00+30св4102717 0.0 996188
08:00+36в451838 0.0 998571
11:00+42вюв571134 0.0 9972828
14:00+44ююв45644 0.0 9955281
17:00+41с76110 0.0 9942008
20:00+36ссз813160 0.0 996381
31 мая, вт
вт3123:00+32св5112415 0.0 996217
02:00+30св48260 0.0 995142
05:00+28св36271 0.0 99677
08:00+36св33150 0.0 998445
11:00+43юв5653 0.0 9972165
14:00+46ююв4541 0.0 9945322
17:00+45ююв4540 0.0 9935467
20:00+37юв2260 0.0 99515
1 июня, ср
ср123:00+33ссз23991 0.0 99639
02:00+32в48105 0.0 995118
05:00+29св222026 0.0 99619
08:00+37вюв59745 0.0 998669
11:00+44ююв5631 0.0 9981861
14:00+46ююв54320 0.0 9956028
17:00+45ююв3335 0.0 9945250
20:00+37юз2249 0.0 99615
2 июня, чт
чт223:00+34ссв4685 0.0 99777
02:00+31св11836 0.0 99515
05:00+30в46105 0.0 99691
08:00+37вюв45715 0.0 998652
11:00+44ю4547 0.0 9972326
14:00+46ю7730 0.0 9945711
17:00+44ю5620 0.0 9935122
20:00+37ю3330 0.0 99516